CZ-6A DEB

Satellite information

Favourite Embed

Satellite Type and Status

DEBRISIN ORBIT

Key statistics

Satellite CZ-6A DEB at a glance.

Uptime

1128

Days in orbit

Revolutions

≈ 14.1

Per day

Orbit

SSO

Sun Synchronous Orbit

Inclination

98.9

Latest

Satellite identification and parameters

Extended collection of information and parameters for CZ-6A DEB.

Object identification

Identified? True

Debris? True

Object name: CZ-6A DEB

International designator: 2022-151SY

Object number (NORAD): 54959

Object ID (CCSDS): 54959

Country: PEOPLES REPUBLIC OF CHINA (PRC)

Current information (Y/N): Y

RCS size: SMALL

Orbital parameters

Period: 102.402 minutes

Inclination: 98.8505 deg

SMA: 7250.484 km

Apoapsis: 926.152 km

Periapsis: 818.546 km

RAAN: 334.2696 deg

Eccentricy: 0.00742059

Argument of periapsis: 179.9405 deg

Mean anomaly: 180.1784 deg

Mean motion: 14.06216785 rev/day

Mean motion (dot): 0.00001418 rev/day2

B* drag term: 0.00086591045 1/REarth

Two-line elements (TLE)

Creation date: Dec. 12, 2025, 10:14 a.m.

Reference frame: TEME

Reference center: EARTH

Epoch: Dec. 12, 2025, 4:54 a.m. UTC

TLE line 0: 0 CZ-6A DEB

TLE line 1: 1 54959U 22151SY 25346.20451496 .00001418 00000-0 86591-3 0 9990

TLE line 2: 2 54959 98.8505 334.2696 0074206 179.9405 180.1784 14.06216785157839

Live tracking on map

Real-time ground track for satellite CZ-6A DEB.

In-orbit conjunctions

A list of the most updated potential collisions computed for object CZ-6A DEB.

Target Orbit TCA Probability of collision Miss distance Type
CZ-6A DEB LEO 2025-05-06 11:54:55 0.0001020223 361.0 (m) DEBRIS
COSMOS 2251 DEB LEO 2025-01-21 21:42:47 0.0001000295 527.0 (m) DEBRIS

Associated space launch

Chinese satellite reported for atmospheric/ocean/environmental/spatial parameter research purposes, details TBD.

CZ-6A DEB was lifted into orbit during the mission ‘Long March 6A | Yunhai 3’, on board a Long March 6A space rocket.

The launch took place on Nov. 11, 2022, 10:52 p.m. from Launch Complex 9A.

For more information about the launch, click the button.

Launch to space Long March 6A | Yunhai 3
Long March 6A | Yunhai 3

Agency: N/A

Status: Launch Successful

Launch date: Nov. 11, 2022, 10:52 p.m. UTC

Rocket: Long March 6A

Launch pad: Launch Complex 9A

Location: Taiyuan Satellite Launch Center, People's Republic of China

...

Latest news about this satellite

There are no fresh news available about this satellite. Check back as we update our databases every day.


Newsletter sign-up

Weekly statistics, charts and insights to help you stay on top of the space industry.